This demonstration page uses our WeatherBlox Daily Observations layout. Learn more.

Left ArrowRight Arrow

Hourly Observations for September 28, 2017

Temp ( °F °C ) Dew Point ( °F °C ) Humidity (%) Winds ( mph kmh ) Pressure ( in mb ) Visibility ( mi km ) Precip ( " mm )
12:54 am 00:54 Clear 51 10.6 48 8.9 89 89 N 3 6 30.25 1024 10 16.0934 0 0
1:54 am 01:54 Clear 51 10.6 48 8.9 89 89 SSE 5 7 30.25 1024 10 16.0934 0 0
2:54 am 02:54 Clear 50 10 47 8.3 89 89 S 5 7 30.25 1024 10 16.0934 0 0
3:54 am 03:54 Clear 50 10 46 7.8 86 86 S 3 6 30.25 1024 10 16.0934 0 0
4:54 am 04:54 Clear 50 10 46 7.8 86 86 S 5 7 30.25 1024 10 16.0934 0 0
5:54 am 05:54 Clear 49 9.4 46 7.8 90 90 Calm 30.25 1024 10 16.0934 0 0
6:54 am 06:54 Clear 49 9.4 46 7.8 90 90 Calm 30.26 1025 10 16.0934 0 0
7:54 am 07:54 Sunny 48 8.9 46 7.8 93 93 Calm 30.28 1025 9 14.48406 0 0
8:54 am 08:54 Sunny 54 12.2 49 9.4 83 83 Calm 30.28 1026 8 12.87472 0 0
9:54 am 09:54 Sunny 61 16.1 51 10.6 70 70 Calm 30.28 1025 10 16.0934 0 0
10:54 am 10:54 Sunny 65 18.3 52 11.1 63 63 Calm 30.27 1025 10 16.0934 0 0
11:54 am 11:54 Sunny 72 22.2 47 8.3 41 41 Calm 30.25 1025 10 16.0934 0 0
12:54 pm 12:54 Sunny 75 23.9 48 8.9 39 39 Calm 30.23 1024 10 16.0934 0 0
1:54 pm 13:54 Sunny 78 25.6 47 8.3 33 33 undefined N/A 30.2 1023 10 16.0934 0 0
2:54 pm 14:54 Sunny 79 26.1 43 6.1 28 28 N 8 13 30.19 1022 10 16.0934 0 0
3:54 pm 15:54 Sunny 79 26.1 45 7.2 30 30 VRB 5 7 30.17 1022 7 11.26538 0 0
4:54 pm 16:54 Sunny 79 26.1 42 5.6 27 27 NW 6 9 30.17 1022 10 16.0934 0 0
5:54 pm 17:54 Sunny 76 24.4 44 6.7 32 32 N 7 11 30.16 1022 7 11.26538 0 0
6:03 pm 18:03 Hazy 76 24.4 47 8.3 36 36 N 5 7 30.15 1021 1.75 2.816345 0 0
6:12 pm 18:12 Sunny 77 25 44 6.7 31 31 N 7 11 30.15 1021 10 16.0934 0 0
6:54 pm 18:54 Sunny 69 20.6 47 8.3 45 45 N 5 7 30.18 1022 10 16.0934 0 0
7:54 pm 19:54 Clear 63 17.2 49 9.4 60 60 NNE 3 6 30.19 1022 10 16.0934 0 0
8:54 pm 20:54 Clear 61 16.1 52 11.1 72 72 Calm 30.2 1023 10 16.0934 0 0
9:01 pm 21:01 Hazy 61 16.1 51 10.6 70 70 Calm 30.21 1023 2 3.21868 0 0
9:09 pm 21:09 Clear 62 16.7 52 11.1 70 70 Calm 30.21 1023 10 16.0934 0 0
9:54 pm 21:54 Clear 59 15 51 10.6 75 75 Calm 30.21 1023 10 16.0934 0 0
10:54 pm 22:54 Clear 55 12.8 51 10.6 87 87 N 3 6 30.22 1023 10 16.0934 0 0
11:36 pm 23:36 Clear 54 12.2 50 10 87 87 N 5 7 30.21 1023 2.5 4.02335 0 0
11:54 pm 23:54 Clear 56 13.3 51 10.6 84 84 Calm 30.21 1023 3 4.82802 0 0

Powered by AerisWeather